Lapse_Rate
9.7 9.5 9.3 9.1 9.0 8.9 8.8 8.2 7.8 7.7 7.5 7.5 7.2 6.5 6.2 6.0 5.9 5.8 6.1 6.2 6.3 6.3 6.4 6.2 6.0 6.2 6.4 6.4 6.3 6.1 6.0 6.0 5.8
9.6 9.5 9.2 9.1 9.0 9.0 8.8 8.5 8.1 7.7 7.5 7.4 7.2 6.7 6.2 6.2 6.0 5.9 5.9 5.9 5.9 6.0 6.0 5.9 5.9 6.1 6.2 6.3 6.3 6.4 6.2 6.2 6.0
9.6 9.5 9.3 9.3 9.1 9.1 8.7 8.4 8.3 7.9 7.8 7.3 7.3 7.4 6.8 6.3 6.4 6.4 6.1 5.9 5.9 6.1 6.1 6.0 6.0 6.0 6.0 6.2 6.3 6.5 6.0 6.2 6.1
9.3 9.2 9.2 9.2 9.1 8.8 8.7 8.5 8.3 8.1 8.0 7.9 6.8 7.3 6.8 6.6 6.5 6.5 6.5 6.1 6.2 6.5 6.5 6.3 6.2 6.0 6.0 6.2 6.3 6.5 6.5 6.4 6.3
9.3 9.3 9.2 9.1 9.1 9.0 8.7 8.3 8.1 7.7 7.6 7.2 6.6 6.5 6.7 6.7 6.6 6.4 6.7 6.5 6.1 6.4 6.6 6.5 6.5 6.4 6.3 6.3 6.4 6.4 6.4 6.4 6.6
9.2 9.1 9.1 9.1 9.0 8.9 8.7 8.6 7.7 7.2 7.2 6.4 6.7 6.9 7.2 7.1 6.9 6.6 6.6 6.4 6.3 6.5 6.7 6.3 6.3 6.6 6.6 6.5 6.5 6.4 6.4 6.5 6.6
8.8 8.9 8.9 9.0 8.8 8.7 8.6 8.5 8.0 7.6 7.4 6.7 6.8 7.2 7.1 7.4 7.3 6.9 6.7 6.5 6.5 6.3 6.6 6.6 6.4 6.5 6.7 6.7 6.6 6.7 6.6 6.6 6.6
8.8 8.9 8.9 8.9 8.9 8.7 8.8 8.6 8.4 7.7 7.8 7.6 7.2 7.2 7.7 7.6 7.1 7.1 6.8 6.7 6.6 6.6 6.6 6.7 6.7 6.7 6.6 6.9 7.0 6.8 6.9 6.7 6.7
9.0 9.1 9.2 9.0 8.7 8.7 8.9 8.6 8.6 8.2 8.1 8.1 8.3 7.9 7.7 7.6 7.6 7.6 7.6 7.0 6.5 6.7 6.8 6.9 6.8 6.8 6.7 6.7 6.6 6.8 6.9 7.1 7.2
8.7 9.0 9.1 8.9 9.0 8.9 8.7 8.7 8.5 8.5 8.3 8.5 8.4 8.3 8.0 7.9 7.9 7.7 7.6 7.6 7.3 7.1 6.9 7.0 7.1 6.8 6.8 6.8 6.8 6.8 7.2 7.4 7.6
8.6 8.7 8.7 8.7 8.9 8.9 8.8 8.5 8.6 8.8 8.4 7.9 8.2 8.4 8.4 8.3 8.2 8.2 8.4 8.6 7.6 7.1 7.1 7.1 7.1 7.4 7.2 7.3 7.3 7.6 7.5 7.4 7.5
8.4 8.5 8.6 8.6 8.7 8.7 8.9 8.7 8.4 8.2 8.4 8.2 8.1 7.7 7.9 8.2 8.3 8.2 8.2 8.0 8.2 8.0 7.9 7.6 7.3 7.5 7.5 7.4 7.8 7.5 7.4 7.4 7.5
8.2 8.4 8.4 8.5 8.5 8.7 8.7 8.7 8.2 7.9 8.1 8.3 8.3 7.7 7.6 7.7 7.7 7.7 7.7 7.7 7.8 7.8 7.9 8.2 8.2 8.0 7.9 7.7 7.7 7.1 6.9 7.0 6.8
7.9 8.0 8.1 8.0 8.1 8.1 8.5 8.4 7.9 7.7 7.3 7.6 7.6 7.6 7.6 7.7 7.9 8.3 8.2 8.1 7.9 8.1 8.1 8.1 8.4 8.2 8.4 8.2 7.6 7.7 7.3 7.4 7.7
8.2 8.0 7.7 7.7 7.8 7.8 8.1 8.1 8.2 8.1 8.0 7.5 7.3 7.5 7.7 8.0 8.0 8.0 8.2 8.1 8.1 7.9 7.8 7.9 7.9 8.2 8.5 8.5 7.9 7.7 7.9 8.0 7.6
7.0 7.1 7.2 7.1 7.2 7.3 7.4 7.6 7.9 7.9 8.0 7.5 7.3 7.5 7.6 7.6 7.7 7.8 8.0 7.8 7.8 7.6 7.4 7.5 7.5 7.7 8.2 8.1 8.4 7.9 7.8 7.5 7.2
6.8 6.8 6.7 6.8 6.9 7.0 7.1 7.3 7.4 7.5 7.7 7.5 7.3 7.2 7.1 7.0 7.1 7.1 7.1 7.2 7.4 7.7 7.4 7.1 7.1 7.2 7.6 7.9 8.2 8.2 7.7 7.5 7.0
6.4 6.5 6.6 6.6 6.6 6.5 6.6 6.8 6.9 7.2 7.2 7.3 7.2 7.0 6.8 6.6 6.6 6.7 6.5 6.5 6.6 6.7 7.0 7.0 7.0 7.0 7.1 7.4 7.7 8.0 7.8 7.8 7.6
6.4 6.5 6.6 6.7 6.7 6.6 6.7 6.6 6.6 6.9 7.0 6.9 6.7 6.8 6.8 6.7 6.5 6.2 6.0 6.2 6.4 6.4 6.6 6.8 6.9 7.1 7.1 7.3 7.6 7.4 7.4 7.6 7.3
6.4 6.7 6.8 6.8 6.7 6.9 6.9 6.9 6.9 6.9 6.7 6.6 6.4 6.5 6.5 6.5 6.5 6.1 6.1 5.9 6.4 6.6 6.6 6.7 6.8 7.1 7.2 7.3 7.3 7.2 7.2 7.4 7.1
Wind_Speed
6 10 10 14 17 15 15 16 17 17 17 14 15 15 15 12 11 8 8 8 5 6 6 6 5 7 11 12 11 11 10 7 7
7 8 9 10 10 13 12 15 17 19 16 13 13 13 8 7 5 7 9 8 7 6 6 5 6 8 9 9 10 10 7 7 8
7 6 7 9 11 10 11 11 12 12 12 16 7 7 9 9 11 9 7 5 8 8 7 7 6 7 8 8 7 8 8 7 8
4 5 6 5 4 3 4 5 3 5 4 8 9 4 8 13 13 12 9 8 9 9 7 8 9 8 8 8 8 8 7 9 8
4 1 3 5 5 7 7 6 4 5 3 11 13 12 16 7 6 7 9 11 11 7 10 8 10 9 9 9 8 7 8 9 8
6 5 4 4 6 6 6 6 5 6 7 9 13 17 17 13 9 9 11 11 8 9 10 9 9 9 11 10 10 8 8 9 8
1 4 4 2 5 4 0 4 6 5 3 4 7 9 13 14 11 9 9 9 8 10 9 8 9 10 11 10 10 11 10 9 9
4 7 6 5 4 5 3 2 4 2 6 7 9 10 9 9 7 8 7 7 9 9 10 10 10 9 9 9 9 8 10 9 9
5 8 7 6 5 7 7 4 3 2 5 4 7 7 8 7 5 7 8 7 7 8 9 9 7 10 10 10 8 12 15 12 10
6 7 7 7 7 7 5 6 2 3 3 6 6 7 4 5 3 3 5 6 5 7 8 6 9 9 9 11 10 13 16 18 10
6 7 6 4 3 6 7 2 2 3 2 5 5 5 6 4 2 3 3 6 2 4 6 8 8 9 9 10 11 16 16 15 10
3 5 5 3 1 1 5 3 1 3 3 5 6 2 4 4 5 6 7 7 5 3 4 7 9 8 10 12 14 13 16 11 8
7 7 6 6 4 2 4 5 7 5 4 5 5 4 1 1 2 2 1 3 4 4 6 6 7 10 11 14 14 8 14 12 5
6 6 7 7 5 5 7 4 6 7 6 6 6 6 5 3 2 4 2 3 2 3 6 7 8 9 10 10 7 1 9 14 5
7 7 8 7 6 7 8 6 6 8 8 7 7 7 6 5 5 3 1 4 4 4 5 7 8 8 1 3 5 10 14 17 15
7 7 8 5 6 9 8 7 6 9 10 6 6 6 6 7 7 5 5 4 4 4 4 5 8 4 5 5 5 6 15 12 14
8 8 9 8 8 8 10 6 7 10 13 7 6 9 7 4 3 2 1 2 2 5 5 5 5 3 5 7 8 8 7 7 9
7 8 8 6 8 10 13 12 11 9 11 7 8 8 6 5 4 4 3 3 4 6 7 7 6 6 7 9 9 11 13 7 9
6 9 10 10 11 10 13 13 14 14 9 10 12 11 8 6 5 4 4 3 5 10 13 11 11 14 11 9 12 4 9 7 7
10 11 12 13 13 14 15 15 16 14 14 14 14 13 13 7 5 4 4 3 4 6 5 12 9 11 16 13 6 3 6 8 10
Wind_Direction
131 133 152 174 182 176 181 178 180 181 186 197 200 195 204 206 205 208 208 195 190 198 200 208 201 206 212 218 210 210 204 213 217
96 132 148 155 158 186 177 180 184 184 188 197 195 201 194 195 198 215 227 209 189 193 199 211 202 202 212 223 214 214 195 218 222
23 81 115 160 177 172 188 183 183 182 188 193 190 195 175 191 196 194 216 221 211 198 197 202 198 209 219 229 222 208 212 226 234
127 151 175 166 141 142 139 93 133 155 173 106 94 304 220 205 209 201 198 210 223 213 203 201 210 211 220 228 229 226 211 222 227
334 286 33 45 77 72 68 81 94 88 150 149 156 240 238 208 208 203 199 209 221 210 213 203 210 207 218 228 230 224 216 231 236
353 344 23 64 91 97 99 104 119 124 134 176 179 204 218 232 209 198 213 221 211 211 213 213 215 206 215 222 230 226 221 225 233
334 279 259 207 111 103 245 71 151 163 171 192 228 215 211 213 219 217 219 220 213 216 216 208 220 220 222 219 217 219 225 225 231
254 249 250 244 152 156 201 173 143 217 228 237 236 222 206 195 191 205 212 211 212 216 218 213 219 225 227 228 213 220 216 211 225
296 301 279 266 238 197 206 215 249 360 318 164 145 146 148 159 176 202 201 210 213 213 221 223 212 223 223 225 221 215 200 201 213
275 273 268 263 276 288 209 191 232 335 33 329 74 103 127 136 187 261 215 193 202 224 236 222 229 234 219 228 229 214 212 206 215
311 316 312 296 238 262 269 250 166 159 151 91 71 68 94 93 63 120 26 49 5 266 246 238 239 230 223 226 230 217 216 214 219
347 312 316 288 130 221 245 205 228 140 125 96 95 63 74 37 43 24 18 5 336 329 268 256 250 234 225 222 240 208 209 195 205
334 356 340 327 305 229 220 205 171 180 165 147 167 187 149 341 70 100 32 299 303 307 299 277 250 247 236 229 238 205 211 190 197
351 333 335 331 319 274 266 219 189 208 195 201 197 180 181 217 317 320 286 284 257 278 292 295 290 256 245 244 235 174 142 147 134
350 353 344 347 329 297 289 256 244 226 211 206 188 181 188 191 199 205 271 273 285 285 283 282 276 258 161 89 104 113 106 101 93
334 336 328 331 327 319 313 286 256 277 262 205 193 203 199 203 208 196 193 212 243 274 285 285 289 245 161 144 127 136 141 114 93
324 324 320 313 313 305 301 285 267 252 270 260 207 223 219 222 236 247 258 229 265 280 282 282 279 224 187 177 177 190 208 168 101
299 304 305 297 296 295 294 299 292 278 275 272 259 253 244 233 226 222 237 217 251 258 254 248 264 243 209 192 201 207 212 253 188
280 291 292 294 289 281 282 283 281 284 269 263 257 250 253 230 210 210 211 200 267 229 243 253 257 259 249 239 244 243 262 225 162
271 277 280 281 279 281 282 277 276 276 275 268 250 248 245 231 199 202 212 207 234 275 257 231 247 263 251 218 278 296 144 113 110